Location: Cambroso
(45.2833°N, 12.0850°E)
Time: 19:56:43
(UTC+00:00)

Cosmos 2278 Rocket - Pass Details

Date: 21 January 2021
Orbit: 840 x 847 km, 71.0° (Epoch: 04 March)

Event Time Altitude Azimuth Distance (km) Brightness Sun altitude
Rises 18:03:05 0° 170° (S) 3,385 5.3 -20.8°
Reaches altitude 10° 18:05:51 10° 158° (SSE) 2,457 4.5 -21.3°
Enters shadow 18:07:35 18° 145° (SE) 1,970 3.8 -21.6°
